Terminal Aerodrome Forecast
Issued by NWS

Current Version | Previous Version | Text Only | Print | Product List | Glossary Off
Versions: 1 2 3 4 5 6 7 8 9 10 11 12 13 14 15 16 17 18 19 20

119
FTUS41 KILN 242059 AAC
TAFLUK
TAF AMD
KLUK 242059Z 2421/2518 29010KT P6SM SCT070
     FM242300 29004KT P6SM FEW250
     FM251600 26008KT P6SM SCT045=

USA.gov is the U.S. government's official web portal to all federal, state and local government web resources and services.